Zurück zum Katalog

CZ-6A DEB

AktivSSO
NORAD 54604·DEBRIS·🇨🇳 China

Gestartet Nov 11, 2022 von Taiyuan Satellite Launch Center

Loading…

Nächste Überflüge (nächste 24 Stunden)

TLE

AktuellSource: Space-Track

Epoche: Sep 14, 2026, 10:41 UTC

1 54604U 22151NE  26257.44540767  .00000236  00000-0  15585-3 0  9997
2 54604  98.8587 257.9607 0050062  99.6937 260.9893 14.10183032196846

Verfolge CZ-6A DEB in Echtzeit mit AllMySat

Download on the App Store